#timestamp,LO_Frequency,Hit,StdDev 
1609430415.5,286047002.2,N
1609430435.3,286047001.3,N
1609430455.1,286047004.0,N
1609430475.9,286047003.3,N
1609430495.7,286047005.3,Y
1609430515.6,286047003.4,P
1609430535.4,286047005.8,P
1609430555.2,286047005.7,P
1609430575.1,286047005.5,Y
1609430576.0,286047005.5,P
1609430595.8,286047000.0,N
1609430615.6,286047000.1,N
1609430635.5,286047000.4,N
1609430655.3,286047000.7,N
1609430675.2,286046998.8,N
1609430695.9,286046996.6,N
1609430715.7,286046996.7,N
1609430735.6,286046998.0,N
1609430755.4,286046997.4,N
1609430775.2,286046996.9,N
1609430795.1,286046999.5,N
1609430796.0,286046999.5,N
1609430815.8,286046997.2,N
1609430835.7,286046998.8,N
1609430855.5,286046999.1,N
1609430875.3,286046998.6,N
1609430895.2,286046998.9,N
1609430915.0,286046998.4,N
1609430915.9,286046998.4,N
1609430935.7,286046997.2,N
1609430955.6,286046996.9,N
1609430975.4,286046999.3,N
1609430995.3,286047001.2,N
1609431015.1,286047001.0,N
1609431016.0,286047001.0,N
1609431035.8,286047000.1,N
1609431055.7,286046999.9,N
1609431075.5,286047000.3,N
1609431095.3,286047000.2,N
1609431115.2,286046999.7,N
1609431135.0,286047002.1,N
1609431135.9,286047002.1,N
1609431155.8,286047001.6,N
1609431175.6,286047001.3,N
1609431195.4,286047002.9,N
1609431215.3,286047004.2,N
1609431235.1,286047003.1,N
1609431255.8,286047003.8,N
1609431275.7,286047002.0,N
1609431295.5,286047002.6,N
1609431315.4,286047000.6,N
1609431335.2,286047000.4,N
1609431355.0,286047002.6,N
1609431355.9,286047002.6,N
1609431375.8,286047004.3,N
1609431395.6,286047003.8,N
1609431415.4,286047004.1,N
1609431435.3,286047007.6,Y
1609431455.1,286047003.1,P
1609431475.9,286047002.1,N
1609431495.7,286047004.4,P
1609431515.5,286047000.2,N
1609431535.4,286047000.9,N
1609431555.2,286047001.9,N
1609431575.0,286047002.0,N
1609431576.0,286047002.0,N
1609431595.8,286047002.3,N
1609431615.6,286046999.7,N
1609431635.5,286047002.0,N
1609431655.3,286047004.4,Y
1609431675.1,286047002.2,P
1609431695.9,286047001.8,P
1609431715.7,286047001.4,P
1609431735.6,286047001.8,Y
1609431755.4,286047000.4,P
1609431775.2,286047001.0,N
1609431795.1,286047000.9,N
1609431796.0,286047000.9,N
1609431815.8,286046996.9,Y
1609431835.6,286046995.3,P
1609431855.5,286046995.9,N
1609431875.3,286046996.3,N
1609431895.2,286046995.1,N
1609431915.9,286046996.8,N
1609431935.7,286046998.8,N
1609431955.6,286046999.1,N
1609431975.4,286046997.1,N
1609431995.2,286046999.1,N
1609432015.1,286046997.0,N
1609432016.0,286046997.0,N
1609432035.8,286046996.7,N
1609432055.7,286046999.4,N
1609432075.5,286046998.6,N
1609432095.3,286046999.5,N
1609432115.2,286046996.8,N
1609432135.0,286046998.0,N
1609432135.9,286046998.0,N
1609432155.8,286046999.6,N
1609432175.6,286046997.5,N
1609432195.4,286046996.6,N
1609432215.3,286046998.9,N
1609432235.1,286046998.3,N
1609432255.8,286047001.1,N
1609432275.7,286046999.5,N
1609432295.5,286046999.5,N
1609432315.4,286047001.0,N
1609432335.2,286047000.5,N
1609432355.0,286046998.6,N
1609432355.9,286046998.6,N
1609432375.8,286047000.5,N
1609432395.6,286046999.3,N
1609432415.4,286046998.9,N
1609432435.3,286046999.4,N
1609432455.1,286046998.7,N
1609432475.9,286046998.6,N
1609432495.7,286046998.6,N
1609432515.5,286047000.8,N
1609432535.4,286046999.9,N
1609432555.2,286047002.0,N
1609432575.0,286047002.2,N
1609432576.0,286047002.2,N
1609432595.8,286047000.8,N
1609432615.6,286047000.5,N
1609432635.5,286047000.1,N
1609432655.3,286047000.8,N
1609432675.1,286047000.6,N
1609432695.9,286047000.2,N
1609432715.7,286047001.4,N
1609432735.5,286047003.7,N
1609432755.4,286047004.1,N
1609432775.2,286047002.0,N
1609432795.1,286047001.6,N
1609432796.0,286047001.6,N
1609432815.8,286047002.6,N
1609432835.6,286047000.9,N
1609432855.5,286047000.9,N
1609432875.3,286047001.2,N
1609432895.1,286046998.8,N
1609432915.9,286046999.1,N
1609432935.7,286046998.1,N
1609432955.6,286046998.3,N
1609432975.4,286047000.6,N
1609432995.2,286047000.5,N
1609433015.1,286047000.2,N
1609433016.0,286047000.2,N
1609433035.8,286046998.3,N
1609433055.6,286047000.3,N
1609433075.5,286047000.4,N
1609433095.3,286047000.3,N
1609433115.2,286047000.4,N
1609433135.9,286047002.5,N
1609433155.7,286047002.5,N
1609433175.6,286047001.9,N
1609433195.4,286047004.3,N
1609433215.2,286047004.4,N
1609433235.1,286047002.0,N
1609433236.0,286047002.0,N
1609433255.8,286047004.4,N
1609433275.7,286047004.3,N
1609433295.5,286047004.3,N
1609433315.3,286047004.1,N
1609433335.2,286047003.9,N
1609433355.0,286047004.3,N
1609433355.9,286047004.3,N
1609433375.7,286047004.1,N
1609433395.6,286047004.3,N
1609433415.4,286047004.3,N
1609433435.3,286047004.4,N
1609433455.1,286046998.5,N
1609433475.8,286046998.4,N
1609433495.7,286046999.6,N
1609433515.5,286046998.2,N
1609433535.4,286047000.9,N
1609433555.2,286047002.6,N
1609433575.0,286046999.8,N
1609433575.9,286046999.8,N
1609433595.8,286047002.6,N
1609433615.6,286047001.6,N
1609433635.5,286047002.5,N
1609433655.3,286047004.4,N
1609433675.1,286047001.3,N
1609433695.9,286047001.9,N
1609433715.7,286047002.1,N
1609433735.5,286047002.7,N
1609433755.4,286047002.6,N
1609433775.2,286047001.5,N
1609433795.0,286047001.8,N
1609433796.0,286047001.8,N
1609433815.8,286047002.4,N
1609433835.6,286047002.2,N
1609433855.5,286047002.2,N
1609433875.3,286047004.2,N
1609433895.1,286047004.2,N
1609433915.9,286047002.6,N
1609433935.7,286047004.2,N
1609433955.6,286047002.2,N
1609433975.4,286047002.3,N
1609433995.2,286047004.4,N
